Air Resources Laboratory banner image
Air Resources Laboratory web site National Oceanic and Atmospheric Administration (NOAA)

ky roundup


Office: LMK

ASUS43 KLMK 240002
RWRKY
KENTUCKY REGIONAL WEATHER ROUNDUP
NATIONAL WEATHER SERVICE LOUISVILLE KY
800 PM EDT TUE OCT 23 2018

NOTE "FAIR" INDICATES FEW OR NO CLOUDS BELOW 12,000 FEET
WITH NO SIGNIFICANT WEATHER AND/OR OBSTRUCTIONS TO VISIBILITY.

KYZ001>023-026-027-061>063-070>075-240100-
WESTERN AND SOUTH CENTRAL KENTUCKY

CITY           SKY/WX    TMP DP  RH WIND       PRES   REMARKS
PADUCAH        FAIR      59  36  42 N5        30.22R
HENDERSON      FAIR      57  36  45 N6        30.25
OWENSBORO      FAIR      57  33  40 N6        30.24R
HOPKINSVILLE   CLEAR     60  36  41 N3        30.21R
BOWLING GREEN  FAIR      59  37  44 CALM      30.21R
GLASGOW        FAIR      54  39  56 CALM      30.20R
$$

KYZ024-025-028>034-038-045-046-053-240100-
NORTH CENTRAL KENTUCKY

CITY           SKY/WX    TMP DP  RH WIND       PRES   REMARKS
LOUISVILLE/SDF FAIR      57  32  38 N8        30.22R
LOUISVILLE/LOU FAIR      59  34  39 N5        30.22R
FORT KNOX      CLEAR     54  33  45 NW7       30.22R
$$

KYZ035>037-039>044-047>052-055>060-089>105-240100-
NORTHEAST KENTUCKY

CITY           SKY/WX    TMP DP  RH WIND       PRES   REMARKS
LEXINGTON      NOT AVBL
COVINGTON      FAIR      52  36  54 N9        30.22R
FRANKFORT      FAIR      49  36  61 NW5       30.20R
$$

KYZ054-064>069-076>088-106>120-240100-
SOUTHEAST KENTUCKY

CITY           SKY/WX    TMP DP  RH WIND       PRES   REMARKS
JACKSON        FAIR      58  34  40 VRB3      30.18S
LONDON         FAIR      52  45  77 CALM      30.19R
SOMERSET       NOT AVBL
MIDDLESBORO    FAIR      52  47  83 CALM      30.21R
MONTICELLO     NOT AVBL
$$



ASUS43 KLMK 240010
RWRKY
KENTUCKY REGIONAL WEATHER ROUNDUP
NATIONAL WEATHER SERVICE LOUISVILLE KY
800 PM EDT TUE OCT 23 2018

NOTE "FAIR" INDICATES FEW OR NO CLOUDS BELOW 12,000 FEET
WITH NO SIGNIFICANT WEATHER AND/OR OBSTRUCTIONS TO VISIBILITY.

KYZ001>023-026-027-061>063-070>075-240100-
WESTERN AND SOUTH CENTRAL KENTUCKY

CITY           SKY/WX    TMP DP  RH WIND       PRES   REMARKS
PADUCAH        FAIR      59  36  42 N5        30.22R
HENDERSON      FAIR      57  36  45 N6        30.25
OWENSBORO      FAIR      57  33  40 N6        30.24R
HOPKINSVILLE   CLEAR     60  36  41 N3        30.21R
BOWLING GREEN  FAIR      59  37  44 CALM      30.21R
GLASGOW        FAIR      54  39  56 CALM      30.20R
$$

KYZ024-025-028>034-038-045-046-053-240100-
NORTH CENTRAL KENTUCKY

CITY           SKY/WX    TMP DP  RH WIND       PRES   REMARKS
LOUISVILLE/SDF FAIR      57  32  38 N8        30.22R
LOUISVILLE/LOU FAIR      59  34  39 N5        30.22R
FORT KNOX      CLEAR     54  33  45 NW7       30.22R
$$

KYZ035>037-039>044-047>052-055>060-089>105-240100-
NORTHEAST KENTUCKY

CITY           SKY/WX    TMP DP  RH WIND       PRES   REMARKS
LEXINGTON      NOT AVBL
COVINGTON      FAIR      52  36  54 N9        30.22R
FRANKFORT      FAIR      49  36  61 NW5       30.20R
$$

KYZ054-064>069-076>088-106>120-240100-
SOUTHEAST KENTUCKY

CITY           SKY/WX    TMP DP  RH WIND       PRES   REMARKS
JACKSON        FAIR      58  34  40 VRB3      30.18S
LONDON         FAIR      52  45  77 CALM      30.19R
SOMERSET       FAIR      52  43  71 CALM      30.21R
MIDDLESBORO    FAIR      52  47  83 CALM      30.21R
MONTICELLO     NOT AVBL
$$



ASUS63 KLMK 240035
RTPLMK
Max/Min Temperature and Precipitation Table for Central Kentucky
National Weather Service Louisville KY
835 PM EDT Tue Oct 23 2018

High Temperature Past 18 Hours
Low Temperature Past 18 Hours
24 Hour Precipitation Ending at 7PM EST/8PM EDT

.BR LMK 1023 ES DH19/TAIRZS/TAIRZI/PPDRZZ
:
:                                Hi    Lo    Pcpn
:...Southern Indiana...
:
HNB : Huntingburg             :  65 /  37 /  0.00
:
:...Central Kentucky...
:
BWG : Bowling Green Apt       :  71 /  39 /  0.00
FTK : Fort Knox               :  68 /  39 /  0.00
FFT : Frankfort               :  68 /  40 /  0.00
LEX : Lexington Apt           :  68 /  42 /  0.00
SDF : Louisville-Intl Apt     :  71 /  43 /  0.00
LOU : Louisville-Bowman Apt   :  70 /  40 /  0.00
.END

These data are preliminary and have not undergone final quality
control by the National Climatic Data Center (NCDC). Therefore,
these data are subject to revision. Final and certified climate
data can be accessed at www.ncdc.noaa.gov.

.BR LMK 1023 ES DH19/TAIRPS/TAIRPI/PPDRPZ
:
:...Central Kentucky Mesonet Stations...
:
ALBNKY : Albany 1N            :  63 /  38 /  0.00
FARMKY : Bowling Green 5S     :  65 /  37 /  0.00
PSPGKY : Bowling Green 4E     :     /     /
BRNDKY : Brandenburg 4SW      :  67 /  36 /  0.00
GRDRKY : Burkesville 3W       :  64 /  34 /  0.00
BNGLKY : Campbellsville 7W    :  64 /  35 /  0.00
CLSLKY : Carlisle 5SW         :  65 /  40 /  0.00
CMBAKY : Columbia 3N          :  64 /  39 /  0.00
RBSNKY : Cynthiana 8N         :  64 /  34 /    M
DANVKY : Danville 3SW         :  68 /  41 /  0.00
RNDHKY : Edmonton 5W          :  64 /  45 /  0.00
CCLAKY : Elizabethtown 8W     :  67 /  36 /  0.00
LSMLKY : Frankfort 7S         :  66 /  40 /  0.00
SWZRKY : Franklin 4SW         :  65 /  38 /  0.00
MROKKY : Glasgow 11W          :  65 /  38 /  0.00
HARDKY : Hardinsburg 2SSW     :  67 /  37 /  0.00
MQDYKY : Hardinsburg 5SW      :     /     /
HRDBKY : Harrodsburg 3N       :  65 /  42 /  0.00
HTFDKY : Hartford 3E          :  68 /  37 /  0.00
HDGVKY : Hodgenville 2E       :  66 /  41 /  0.00
LGRNKY : La Grange 6NW        :  62 /  42 /  0.00
LRTOKY : Lebanon 8NW          :  65 /  40 /  0.00
BLRKKY : Leitchfield 3W       :  66 /  37 /  0.00
LXGNKY : Lexington 7S         :  64 /  45 /  0.00
PCWNKY : Liberty 3SW          :  67 /  35 /  0.00
WDBYKY : Morgantown 4SE       :  67 /  35 /  0.00
HDYVKY : Munfordville 6E      :  65 /  36 /  0.00
ELSTKY : Richmond 8E          :  65 /  38 /  0.00
RSVLKY : Russellville 2W      :  66 /  38 /  0.00
SCTVKY : Scottsville 2W       :  66 /  38 /  0.00
CROPKY : Shelbyville 9NNE     :  64 /  37 /  0.00
FCHVKY : Shelbyville 10W      :  65 /  39 /  0.00
CRMTKY : Shepherdsville 6SE   :  66 /  38 /    M
LGNTKY : Stanford 4NE         :  68 /  39 /  0.00
GAMAKY : Tompkinsville 7SW    :  63 /  37 /  0.00
WNCHKY : Winchester 3NW       :  65 /  39 /  0.00
.END


24 Hour Precipitation Ending at 7PM EST/8PM EDT

.BR LMK 1023 ES DH19/PPDRRZ
:
...Louisville MSD Network...
:
MSDTR01 : D. R. Guthrie WQTC                  :  0.00
MSDTR02 : PRP Fire Station Training Center    :  0.00
MSDTR03 : Shively Pump Station                :  0.00
MSDTR04 : Morris Forman WQTC                  :  0.00
MSDTR05 : Beargrass Creek Pumping Station     :  0.00
MSDTR06 : Hite Creek WQTC                     :  0.00
MSDTR07 : Floyds Fork WQTC                    :  0.00
MSDTR08 : Fern Creek Fire Station #3          :  0.00
MSDTR09 : Cedar Creek WQTC                    :  0.00
MSDTR10 : Camp Horine                         :  0.00
MSDTR11 : Northern Ditch Pumping Station      :  0.00
MSDTR12 : Nightingale Pumping Station         :  0.00
MSDTR13 : St. Matthews Elementary             :  0.00
MSDTR14 : Lea Ann Way Pumping Station         :  0.00
MSDTR15 : Grand Avenue Pumping Station        :  0.00
MSDTR16 : Stopher Elementary                  :  0.00
MSDTR17 : Mt. St. Francis                     :  0.00
MSDTR18 : IVY Tech                            :  0.00
MSDTR19 : Fairdale High School                :  0.00
MSDTR20 : Pond Creek Pumping Station          :  0.00
MSDTR21 : Wheeler Basin                       :  0.00
MSDTR22 : Billtown Road Pumping Station       :  0.00
MSDTR23 : Transylvania Beach Pumping Station  :  0.00
MSDTR24 : Spencer County Middle School        :  0.00
MSDTR25 : Piccadilly                          :  0.00
MSDTR26 : Buechel Basin                       :  0.00
MSDTR27 : St. Michael Elementary              :  0.00
MSDTR28 : Simpsonville Fire Station           :  0.00
MSDTR29 : Hayswood Nature Reserve             :  0.00
MSDTR30 : LGE Compressor Station              :  0.00
MSDTR31 : South Central High School           :  0.00
MSDTR32 : Corydon Waste Water Treatment Plant :  0.00
MSDTR33 : A.B. Sawyer Park                    :  0.00
MSDTR34 : Roosevelt-Perry Elementary          :  0.00
MSDTR35 : Dunn Elementary                     :  0.00
MSDTR36 : Klondike Elementary                 :  0.00
MSDTR37 : Stuart Middle School                :  0.00
MSDTR38 : Oldham County High School           :  0.00
MSDTR39 : Bullitt East High School            :  0.00
MSDTR40 : Zoneton Middle School               :  0.00
MSDTR41 : Shepherdsville Elementary School    :  0.00
.END

These data are from networks outside the NWS.

$$


ASUS63 KLMK 240037
RTPKY
Max/Min Temperature and Precipitation Table for Kentucky
National Weather Service Louisville KY
837 PM EDT Tue Oct 23 2018

High Temperature Past 18 Hours
Low Temperature Past 18 Hours
24 Hour Precipitation Ending at 7PM EST/8PM EDT

.BR LMK 1023 ES DH19/TAIRZS/TAIRZI/PPDRZZ
:
:...Kentucky...
:                                Hi    Lo    Pcpn
:
BWG : Bowling Green Apt       :  71 /  39 /  0.00
CVG : Cincinnati              :  63 /  39 /  0.00
HOP : Fort Campbell           :  71 /  40 /  0.00
FTK : Fort Knox               :  68 /  39 /  0.00
FFT : Frankfort               :  68 /  40 /  0.00
JKL : Jackson                 :  67 /  43 /  0.00
LEX : Lexington Apt           :  68 /  42 /  0.00
LOZ : London                  :  67 /  37 /  0.00
SDF : Louisville-Intl Apt     :  71 /  43 /  0.00
LOU : Louisville-Bowman Apt   :  70 /  40 /  0.00
OWB : Owensboro AWOS          :  70 /  40 /  0.00
PAH : Paducah ASOS            :  74 /  40 /  0.00
.END

These data are preliminary and have not undergone final quality
control by the National Climatic Data Center (NCDC). Therefore,
these data are subject to revision. Final and certified climate
data can be accessed at www.ncdc.noaa.gov.

.BR LMK 1023 ES DH19/TAIRPS/TAIRPI/PPDRPZ
:
:...Kentucky Mesonet Stations...
:
ALBNKY : Albany 1N            :  63 /  38 /  0.00
HHTSKY : Alexandria 5NW       :  61 /  45 /  0.00
BMBLKY : Barbourville 3E      :  64 /  36 /  0.00
DRFNKY : Benton 4N            :  68 /  39 /  0.00
BNVLKY : Booneville 2S        :  68 /  34 /  0.00
BRNDKY : Brandenburg 4SW      :  67 /  36 /  0.00
GRDRKY : Burkesville 3W       :  64 /  34 /  0.00
HUEYKY : Burlington 4S        :  61 /  44 /  0.00
FARMKY : Bowling Green 5S     :  65 /  37 /  0.00
PSPGKY : Bowling Green 4E     :     /     /
CADZKY : Cadiz 4SW            :  67 /  38 /  0.00
PVRTKY : Calhoun 5NW          :  67 /  36 /  0.00
BNGLKY : Campbellsville 7W    :  64 /  35 /  0.00
CLSLKY : Carlisle 5SW         :  65 /  40 /  0.00
CRRLKY : Carrollton 2E        :  64 /  38 /  0.00
CMBAKY : Columbia 3N          :  64 /  39 /  0.00
RBSNKY : Cynthiana 8N         :  64 /  34 /    M
DANVKY : Danville 3SW         :  68 /  41 /  0.00
RNDHKY : Edmonton 5W          :  64 /  45 /  0.00
CCLAKY : Elizabethtown 8W     :  67 /  36 /  0.00
ZIONKY : Elkton 5SW           :  66 /  37 /  0.00
LSMLKY : Frankfort 7S         :  66 /  40 /  0.00
SWZRKY : Franklin 4SW         :  65 /  38 /  0.00
MROKKY : Glasgow 11W          :  65 /  38 /  0.00
CCTYKY : Greenville 6N        :  68 /  38 /  0.00
HARDKY : Hardinsburg 2SSW     :  67 /  37 /  0.00
MQDYKY : Hardinsburg 5SW      :     /     /
BMTNKY : Harlan 24ENE         :  56 /  41 /  0.00
HRDBKY : Harrodsburg 3N       :  65 /  42 /  0.00
HTFDKY : Hartford 3E          :  68 /  37 /  0.00
GRHMKY : Henderson 5E         :  67 /  35 /  0.00
HCKMKY : Hickman 2E           :  67 /  39 /  0.00
VESTKY : Hindman 5N           :  63 /  45 /  0.00
HDGVKY : Hodgenville 2E       :  66 /  41 /  0.00
PGHLKY : Hopkinsville 6N      :  69 /  39 /  0.00
QKSDKY : Jackson 3SE          :  65 /  35 /  0.00
LGRNKY : La Grange 6NW        :  62 /  42 /  0.00
LRTOKY : Lebanon 8NW          :  65 /  40 /  0.00
BLRKKY : Leitchfield 3W       :  66 /  37 /  0.00
LXGNKY : Lexington 7S         :  64 /  45 /  0.00
PCWNKY : Liberty 3SW          :  67 /  35 /  0.00
LUSAKY : Louisa 1S            :  67 /  35 /  0.00
ERLNKY : Madisonville 4S      :  69 /  43 /  0.00
RPTNKY : Marion 4NE           :  68 /  44 /  0.00
PRYBKY : Mayfield 6SW         :  67 /  37 /  0.00
WSHTKY : Maysville 3SW        :  61 /  41 /  0.00
OLINKY : McKee 5S             :  62 /  39 /  0.00
MRHDKY : Morehead 4NE         :  64 /  36 /  0.00
FRNYKY : Morganfield 4E       :  69 /  39 /  0.00
WDBYKY : Morgantown 4SE       :  67 /  35 /  0.00
HDYVKY : Munfordville 6E      :  65 /  36 /  0.00
MRRYKY : Murray 1W            :  67 /  39 /  0.00
SWONKY : Owenton 5E           :  62 /  40 /  0.00
PRSTKY : Owingsville 4S       :  65 /  44 /  0.00
BTCKKY : Paintsville 4W       :  66 /  34 /  0.00
DORTKY : Pikeville 13S        :  64 /  44 /  0.00
PRNCKY : Princeton 2SE        :  69 /  38 /  0.00
ELSTKY : Richmond 8E          :  65 /  38 /  0.00
RSVLKY : Russellville 2W      :  66 /  38 /  0.00
SCTVKY : Scottsville 2W       :  66 /  38 /  0.00
CROPKY : Shelbyville 9NNE     :  64 /  37 /  0.00
FCHVKY : Shelbyville 10W      :  65 /  39 /  0.00
CRMTKY : Shepherdsville 6SE   :  66 /  38 /    M
LGNTKY : Stanford 4NE         :  68 /  39 /  0.00
GAMAKY : Tompkinsville 7SW    :  63 /  37 /  0.00
CHTRKY : Vanceburg 6W         :  65 /  34 /  0.00
WLBTKY : West Liberty 2SW     :  64 /  43 /  0.00
WTBGKY : Whitesburg 2NW       :  65 /  36 /  0.00
FLRKKY : Whitley City 3N      :  62 /  42 /  0.00
WNCHKY : Winchester 3NW       :  65 /  39 /  0.00
.END


24 Hour Precipitation Ending at 7PM EST/8PM EDT

.BR LMK 1023 ES DH19/PPDRRZ
:
...Louisville MSD Network...
:
MSDTR01 : D. R. Guthrie WQTC                  :  0.00
MSDTR02 : PRP Fire Station Training Center    :  0.00
MSDTR03 : Shively Pump Station                :  0.00
MSDTR04 : Morris Forman WQTC                  :  0.00
MSDTR05 : Beargrass Creek Pumping Station     :  0.00
MSDTR06 : Hite Creek WQTC                     :  0.00
MSDTR07 : Floyds Fork WQTC                    :  0.00
MSDTR08 : Fern Creek Fire Station #3          :  0.00
MSDTR09 : Cedar Creek WQTC                    :  0.00
MSDTR10 : Camp Horine                         :  0.00
MSDTR11 : Northern Ditch Pumping Station      :  0.00
MSDTR12 : Nightingale Pumping Station         :  0.00
MSDTR13 : St. Matthews Elementary             :  0.00
MSDTR14 : Lea Ann Way Pumping Station         :  0.00
MSDTR15 : Grand Avenue Pumping Station        :  0.00
MSDTR16 : Stopher Elementary                  :  0.00
MSDTR17 : Mt. St. Francis                     :  0.00
MSDTR18 : IVY Tech                            :  0.00
MSDTR19 : Fairdale High School                :  0.00
MSDTR20 : Pond Creek Pumping Station          :  0.00
MSDTR21 : Wheeler Basin                       :  0.00
MSDTR22 : Billtown Road Pumping Station       :  0.00
MSDTR23 : Transylvania Beach Pumping Station  :  0.00
MSDTR24 : Spencer County Middle School        :  0.00
MSDTR25 : Piccadilly                          :  0.00
MSDTR26 : Buechel Basin                       :  0.00
MSDTR27 : St. Michael Elementary              :  0.00
MSDTR28 : Simpsonville Fire Station           :  0.00
MSDTR29 : Hayswood Nature Reserve             :  0.00
MSDTR30 : LGE Compressor Station              :  0.00
MSDTR31 : South Central High School           :  0.00
MSDTR32 : Corydon Waste Water Treatment Plant :  0.00
MSDTR33 : A.B. Sawyer Park                    :  0.00
MSDTR34 : Roosevelt-Perry Elementary          :  0.00
MSDTR35 : Dunn Elementary                     :  0.00
MSDTR36 : Klondike Elementary                 :  0.00
MSDTR37 : Stuart Middle School                :  0.00
MSDTR38 : Oldham County High School           :  0.00
MSDTR39 : Bullitt East High School            :  0.00
MSDTR40 : Zoneton Middle School               :  0.00
MSDTR41 : Shepherdsville Elementary School    :  0.00
.END

These data are from networks outside the NWS.

$$